Regional Weather Roundup
Issued by NWS

Home | Current Version | Previous Version | Graphics & Text | Print | Product List | Glossary On
Versions: 1 2 3 4 5 6 7 8 9 10 11 12 13 14 15 16 17 18 19 20 21 22 23 24 25 26 27 28 29 30 31 32 33 34 35 36 37 38 39 40 41 42 43 44 45 46 47 48 49 50
812
ASUS43 KFSD 011910
RWRSD

WEATHER ROUNDUP FOR SOUTH DAKOTA
NATIONAL WEATHER SERVICE SIOUX FALLS SD
200 PM CDT SAT OCT 01 2016

NOTE: "FAIR" INDICATES FEW OR NO CLOUDS BELOW 12,000 FEET WITH NO
SIGNIFICANT WEATHER AND/OR OBSTRUCTIONS TO VISIBILITY.


SDZ001>005-009-010-012>017-012000-
NORTHWEST AND NORTH CENTRAL SOUTH DAKOTA

CITY           SKY/WX    TMP DP  RH WIND       PRES   REMARKS
BUFFALO          N/A     81  51  35 VRB5      29.89F
FAITH            N/A     78  50  37 S16G22    29.95F
MOBRIDGE       SUNNY     75  47  36 SE16      29.96F
$$

SDZ012>016-024>037-041>051-057-063-072>074-012000-
SOUTHWEST AND SOUTH CENTRAL SOUTH DAKOTA

CITY           SKY/WX    TMP DP  RH WIND       PRES   REMARKS
RAPID CTY ARPT SUNNY     79  52  38 SE9       29.97F
PIERRE         CLOUDY    75  48  38 SE18      29.97F
CUSTER         PTSUNNY   72  44  36 VRB7      30.08F
ELLSWORTH AFB  SUNNY     79  52  39 SE9       29.96F
PHILIP         SUNNY     79  50  36 SE10      29.94F
PINE RIDGE     SUNNY     81  48  31 S7G16     29.98F
SPEARFISH      FAIR      77  50  38 NE13      29.99F
WINNER         FAIR      75  50  41 SE17G23   30.00F
$$

SDZ004>011-016>023-039-040-012000-
NORTHEAST SOUTH DAKOTA

CITY           SKY/WX    TMP DP  RH WIND       PRES   REMARKS
ABERDEEN       SUNNY     75  46  35 S16       30.04F
WATERTOWN      CLOUDY    70  53  54 SE13      30.09F
BROOKINGS      CLOUDY    68  54  60 SE9       30.10F
SISSETON         N/A     74  52  46 S13G22    30.08F
$$

SDZ017-020-022-023-036>040-048>070-012000-
SOUTHEAST SOUTH DAKOTA

CITY           SKY/WX    TMP DP  RH WIND       PRES   REMARKS
SIOUX FALLS    CLOUDY    68  55  63 E8        30.10F
HURON          SUNNY     74  48  39 S16G24    30.05F
CHAMBERLAIN    SUNNY     77  50  38 SE18      30.02F
MITCHELL       SUNNY     74  50  42 S10       30.07F
YANKTON        MOSUNNY   70  54  56 SE12      30.07F
$$

ABBREVIATIONS USED IN REMARKS
   TC - TEMPERATURE IN CELSIUS
  WCI - WIND CHILL INDEX
   HX - HEAT INDEX
  VSB - VISIBILITY





USA.gov is the U.S. government's official web portal to all federal, state and local government web resources and services.